Flag for USA

Past Weather in 35°14'30.9"N, 80°50'28.8"W, USA — Yesterday and Last 2 Weeks

Now
62 °F

Light rain. Fog.


Feels Like: 62 °F
Forecast: 75 / 63 °F
Wind: 3 mph from Northeast

Location: Charlotte / Douglas International Airport
Current Time: Sep 25, 2020 at 7:21:26 am
Latest Report: Sep 25, 2020 at 6:52 am
Visibility: 4 mi
Pressure30.04 "Hg
Humidity: 93%
Dew Point: 60 °F
Location of 35°14'30.9"N, 80°50'28.8"WLocation

Past Weather in 35°14'30.9"N, 80°50'28.8"W — Graph

°F

35°14'30.9"N, 80°50'28.8"W Temperature Yesterday

Maximum temperature yesterday: 73 °F (at 1:52 pm)
Minimum temperature yesterday: 62 °F (at 12:52 am)
Average temperature yesterday: 66 °F

High & Low Weather Summary for the Past Weeks

 TemperatureHumidityPressure
High91 °F (Sep 11, 2:52 pm)97% (Sep 18, 1:52 am)30.48 "Hg (Sep 18, 1:52 am)
Low44 °F (Sep 22, 4:52 am)40% (Sep 22, 3:52 pm)29.74 "Hg (Sep 17, 5:52 pm)
Average69 °F75%30.12 "Hg
* Reported Sep 10 6:52 am — Sep 25 6:21 am, 35°14'30.9"N, 80°50'28.8"W. Weather by CustomWeather, © 2020

Note: Actual official high and low records may vary slightly from our data, if they occured in-between our weather recording intervals... More about our weather records

35°14'30.9"N, 80°50'28.8"W Weather History for the Previous 24 Hours

Scroll right to see more
 ConditionsComfort  
Time TempWeatherWind HumidityBarometerVisibility
6:21 am
Fri, Sep 25
61 °FHeavy rain. Fog.13 mph97%30.03 "Hg2 mi
5:52 am61 °FHeavy rain. Fog.10 mph97%30.01 "Hg2 mi
5:32 am61 °FHeavy rain. Fog.13 mph97%30.02 "Hg1 mi
5:14 am62 °FRain. Fog.14 mph93%30.01 "Hg3 mi
4:42 am62 °FLight rain. Fog.9 mph93%30.02 "Hg2 mi
4:01 am61 °FLight rain. Fog.9 mph97%30.03 "Hg4 mi
2:52 am62 °FLight rain. Fog.9 mph93%30.03 "Hg5 mi
2:32 am62 °FLight rain. Fog.9 mph93%30.05 "Hg4 mi
1:52 am63 °FMostly cloudy.10 mph93%30.05 "Hg8 mi
12:52 am63 °FLight rain. Fog.8 mph97%30.05 "Hg6 mi
11:52 pm
Thu, Sep 24
63 °FRain. Fog.5 mph93%30.06 "Hg5 mi
10:52 pm64 °FLight rain. Mostly cloudy.6 mph90%30.06 "Hg10 mi
9:52 pm63 °FOvercast.7 mph90%30.06 "Hg10 mi
8:52 pm64 °FOvercast.8 mph87%30.06 "Hg10 mi
7:52 pm65 °FMostly cloudy.8 mph91%30.06 "Hg10 mi
6:52 pm66 °FLight rain. Cloudy.9 mph84%30.06 "Hg10 mi
5:52 pm67 °FLight rain. Mostly cloudy.5 mph87%30.05 "Hg9 mi
4:52 pm69 °FLight rain. Mostly cloudy.6 mph79%30.03 "Hg10 mi
3:52 pm72 °FMostly cloudy.6 mph68%30.03 "Hg10 mi
2:52 pm72 °FCloudy.3 mph66%30.04 "Hg10 mi
1:52 pm73 °FMostly cloudy.No wind66%30.05 "Hg10 mi
12:55 pm72 °FMostly cloudy.5 mph68%30.09 "Hg10 mi
11:52 am72 °FPartly sunny.6 mph68%30.08 "Hg10 mi
10:52 am67 °FPartly sunny.No wind81%30.07 "Hg10 mi
9:52 am65 °FMostly cloudy.5 mph87%30.07 "Hg10 mi
8:52 am63 °FMostly cloudy.No wind90%30.07 "Hg10 mi
7:52 am62 °FLight rain. Fog.No wind90%30.05 "Hg6 mi
Weather by CustomWeather, © 2020

See weather overview